Regional Weather Roundup
Issued by NWS Mobile, AL

Home | Current Version | Previous Version | Text Only | Print | Product List | Glossary Off
Versions: 1 2 3 4 5 6 7 8 9 10 11 12 13 14 15 16 17 18 19 20 21 22 23 24 25 26 27 28

000
ASUS44 KMOB 161712
RWRMOB
REGIONAL WEATHER ROUNDUP
NATIONAL WEATHER SERVICE MOBILE AL
1100 AM CST MON JAN 16 2017

NOTE: "FAIR" INDICATES FEW OR NO CLOUDS BELOW 12,000 FEET WITH NO
      SIGNIFICANT WEATHER AND/OR OBSTRUCTIONS TO VISIBILITY.

  * THESE STATIONS ARE PART OF THE UNIVERSITY OF SOUTH ALABAMA
    MESONET AND ARE NOT UNDER NWS OR FAA QUALITY CONTROL.

ALZ061>064-161800-
COASTAL ALABAMA

CITY           SKY/WX    TMP DP  RH WIND       PRES   REMARKS
MOBILE REG APT PTSUNNY   75  62  64 S15       30.23F
BROOKLEY FIELD MOSUNNY   75  65  70 SE10      30.24F
USA CAMPUS*      N/A     73  63  68 SE9       30.23F
DOG RIVER*       N/A     73  64  73 SE13      31.05F


CITY           SKY/WX    TMP DP  RH WIND       PRES   REMARKS
GULF SHORES    SUNNY     75  67  76 SE13G23   30.23F

$$

ALZ051>060-161800-
INTERIOR SOUTHWEST AND SOUTH CENTRAL ALABAMA

CITY           SKY/WX    TMP DP  RH WIND       PRES   REMARKS
GREENVILLE     MOSUNNY   74  51  44 S9        30.25F
EVERGREEN      SUNNY     74  56  53 SE10      30.25F
ATMORE*        NOT AVBL
ANDALUSIA/OPP  SUNNY     77  56  48 VRB3      30.25F
ANDALUSIA*       N/A     73  57  56 SW8       30.25F
FLORALA APT    SUNNY     74  57  55 S8        30.27S
FLORALA*         N/A     73  59  60 NE7       31.03F

$$

FLZ001>006-161800-
WESTERN FLORIDA PANHANDLE

CITY           SKY/WX    TMP DP  RH WIND       PRES   REMARKS
PENSACOLA      MOSUNNY   73  64  73 SE12      30.24S
NAS PENSACOLA  SUNNY     76  65  68 SE13      30.23S
MILTON           N/A    N/A N/A N/A MISG      30.24S
WHTNG S FIELD  SUNNY     78  62  57 S14       30.25S


CITY           SKY/WX    TMP DP  RH WIND       PRES   REMARKS
JAY*             N/A     73  59  60 SE12      30.25F
DUKE FIELD     MOSUNNY   73  60  62 S14       30.24S
CRESTVIEW      MOSUNNY   74  58  57 S9        30.27S
VALPARAISO     MOSUNNY   71  62  71 SE8       30.25S
DESTIN         SUNNY     71  64  78 SE14      30.25S

$$

MSZ076-079-161800-
INTERIOR SOUTHEAST MISSISSIPPI

CITY           SKY/WX    TMP DP  RH WIND       PRES   REMARKS
LEAKESVILLE*   NOT AVBL
AGRICOLA*      NOT AVBL

$$

MARINE OBSERVATIONS

STATION/POSITION TIME  TEMP    WIND        PRES    WAVE
                       AIR SEA DIR/SP/G            HT/PER
                 (UTC) (F)     (DEG/KT/KT) (MB)    (FT/S)
PASCAGOULA       1648   71     130/ 10/ 13 1023.2F
PETIT BOIS ISLND 1648   71     100/  6/  9 1023.9S
GRAND BAY        1545   68     110/  8     1024.0R
KATRINA CUT      1630          120/ 10     1023.4R
CEDAR POINT      1630   65     100/  4     1023.7R
E DAUPHIN ISLAND 1600   68     120/ 11/ 11 1023.2R
MIDDLE BAY LIGHT 1630   67     120/ 10     1023.7R
USCG MOBILE BAY  1648   70 61  170/  4/  6 1024.3F
STATE DOCKS      1642   71 57              1023.7F
MEAHER PARK      1630   72     150/  8     1023.4R
WEEKS BAY        1545   74                   N/A
FORT MORGAN      1648   70     120/ 11/ 13   N/A
12 S ORANGE BCH  1650   69 65  130/ 10/ 10 1023.4S   4/ 6
PENSACOLA BAY    1642   74 61  120/  2/  7 1024.1S
67 S FORT MORGAN 1630   72                 1022.7S

$$

SELECTED LOCATIONS ACROSS THE REGION

CITY           SKY/WX    TMP DP  RH WIND       PRES   REMARKS
NEW ORLEANS    PTSUNNY   75  65  70 S15       30.17F
GULFPORT       CLOUDY    75  64  68 SE15      30.21S
PASCAGOULA AP  PTSUNNY   75  61  61 S13G20    30.22F
PASCAGOULA*    NOT AVBL
HATTIESBURG    MOSUNNY   76  61  59 S17       30.20F
LAUREL         PTSUNNY   75  63  64 S14G23    30.21F
MERIDIAN       PTSUNNY   74  63  68 S13       30.20F
JACKSON        PTSUNNY   71  61  70 S15       30.16F
MONTGOMERY     CLOUDY    72  53  51 E7        30.27F
TROY           PTSUNNY   73  55  53 S12G22    30.27F
ASHFORD*         N/A     73  57  56 SW8       30.25F
DOTHAN         PTSUNNY   74  60  61 S12       30.31S
PANAMA CITY    SUNNY     73  62  68 SE12      30.26S

$$





USA.gov is the U.S. government's official web portal to all federal, state and local government web resources and services.